sat.trackr.live / text

‹ back to catalog

CHEOPS

NORAD 44874 · 2019-092B

PAYLOAD ACTIVE UNKNOWN

§ Identity

Operator
Country
ESA
Launch date
2019-12-18
Launch site
FRGUI
Launch vehicle
Mass (kg)
RCS (m²)

External: N2YO · Heavens-Above · Gunter

§ Orbital elements

Epoch: 2026-05-25T02:06:51.465024Z

Period
98.50 min
Inclination
98.1510°
Eccentricity
0.0010808
Mean motion
14.61946046 rev/d
Perigee alt
679.3 km
Apogee alt
694.5 km
Semi-major
7,065.0 km
B*
6.0120e-5
RAAN
333.6795°
Arg perigee
165.1614°
Mean anomaly
194.9907°
Rev number
34,252

§ Raw data

CHEOPS1 44874U 19092B   26145.08809566  .00000254  00000+0  60120-4 0  99912 44874  98.1510 333.6795 0010808 165.1614 194.9907 14.61946046342526

JSON: /api/v1/satellites/44874 · /tle

For live sub-satellite position, see the globe view (requires WebGL).

§ Visibility from observer

Set your observer location to see the next 7 days of passes ≥ 10°. The values pass through the URL so the page stays shareable.

No JS? Fill the form by hand. The geolocation button needs JavaScript.

§ Radio — SatNOGS DB

ModeDescriptionDownlinkUplink
FM S-band telemetry 2.209 GHz

1 transmitter · refreshed weekly from db.satnogs.org